Location: ??????????
(48.5701°N, 37.7703°E)
Time: 22:44:37
(UTC+00:00)

SeaSat 1 - Pass Details

Date: 14 July 2020
Orbit: 744 x 748 km, 108.0° (Epoch: 10 August)

Event Time Altitude Azimuth Distance (km) Brightness Sun altitude
Rises 00:33:12 0° 24° (NNE) 3,202 7.4 -9.3°
Reaches altitude 10° 00:35:34 10° 17° (NNE) 2,275 6.1 -9.0°
Maximum altitude 00:40:09 40° 309° (NW) 1,100 3.3 -8.5°
Drops below altitude 10° 00:44:44 10° 241° (WSW) 2,264 4.3 -8.0°
Enters shadow 00:45:00 - 240° (WSW) 2,365 4.4 -8.0°
